SCP
0 0 0 0 0 0 0 0 0 0 0 0 0 0 0 0 0 0 0 0 0 0 0 0 0 0 0 0 0 0 0 0 0 0 0 0 0 0 0 0 0 0 0
0 0 0 0 0 0 0 0 0 0 0 0 0 0 0 0 0 0 0 0 0 0 0 0 0 0 0 0 0 0 0 0 0 0 0 0 0 0 0 0 0 0 0
0 0 0 0 0 0 0 0 0 0 0 0 0 0 0 0 0 0 0 0 0 0 0 0 0 0 0 0 0 0 0 0 0 0 0 0 0 0 0 0 0 0 0
0 0 0 0 0 0 0 0 0 0 0 0 0 0 0 0 0 0 0 0 0 0 0 0 0 0 0 0 0 0 0 0 0 0 0 0 0 0 0 0 0 0 0
0 0 0 0 0 0 0 0 0 0 0 0 0 0 0 0 0 0 0 0 0 0 0 0 0 0 0 0 0 0 0 0 0 0 0 0 0 0 0 0 0 0 0
0 0 0 0 0 0 0 0 0 0 0 0 0 0 0 0 0 0 0 0 0 0 0 0 0 0 0 0 0 0 0 0 0 0 0 0 0 0 0 0 0 0 0
0 0 0 0 0 0 0 0 0 0 0 0 0 0 0 0 0 0 0 0 0 0 0 0 0 0 0 0 0 0 0 0 0 0 0 0 0 0 0 0 0 0 0
0 0 0 0 0 0 0 0 0 0 0 0 0 0 0 0 0 0 0 0 0 0 0 0 0 0 0 0 0 0 0 0 0 0 0 0 0 0 0 0 0 0 0
0 0 0 0 0 0 0 0 0 0 0 0 0 0 0 0 0 0 0 0 0 0 0 0 0 0 0 0 0 0 0 0 0 0 0 0 0 0 0 0 0 0 0
0 0 0 0 0 0 0 0 0 0 0 0 0 0 0 0 0 0 0 0 0 0 0 0 0 0 0 0 0 0 0 0 0 0 0 0 0 0 0 0 0 0 0
0 0 0 0 0 0 0 0 0 0 0 0 0 0 0 0 0 0 0 0 0 0 0 0 0 0 0 0 0 0 0 0 0 0 0 0 0 0 0 0 0 0 0
0 0 0 0 0 0 0 0 0 0 0 0 0 0 0 0 0 0 0 0 0 0 0 0 0 0 0 0 0 0 0 0 0 0 0 0 0 0 0 0 0 0 0
0 0 0 0 0 0 0 0 0 0 0 0 0 0 0 0 0 0 0 0 0 0 0 0 0 0 0 0 0 0 0 0 0 0 0 0 0 0 0 0 0 0 0
0 0 0 0 0 0 0 0 0 0 0 0 0 0 0 0 0 0 0 0 0 0 0 0 0 0 0 0 0 0 0 0 0 0 0 0 0 0 0 0 0 0 0
0 0 0 0 0 0 0 0 0 0 0 0 0 0 0 0 0 0 0 0 0 0 0 0 0 0 0 0 0 0 0 0 0 0 0 0 0 0 0 0 0 0 0
0 0 0 0 0 0 0 0 0 0 0 0 0 0 0 0 0 0 0 0 0 0 0 0 0 0 0 0 0 0 0 0 0 0 0 0 0 0 0 0 0 0 0
0 0 0 0 0 0 0 0 0 0 0 0 0 0 0 0 0 0 0 0 0 0 0 0 0 0 0 0 0 0 0 0 0 0 0 0 0 0 0 0 0 0 0
0 0 0 0 0 0 0 0 0 0 0 0 0 0 0 0 0 0 0 0 0 0 0 0 0 0 0 0 0 0 0 0 0 0 0 0 0 0 0 0 0 0 0
0 0 0 0 0 0 0 0 0 0 0 0 0 0 0 0 0 0 0 0 0 0 0 0 0 0 0 0 0 0 0 0 0 0 0 0 0 0 0 0 0 0 0
0 0 0 0 0 0 0 0 0 0 0 0 0 0 0 0 0 0 0 0 0 0 0 0 0 0 0 0 0 0 0 0 0 0 0 0 0 0 0 0 0 0 0
0 0 0 0 0 0 0 0 0 0 0 0 0 0 0 0 0 0 0 0 0 0 0 0 0 0 0 0 0 0 0 0 0 0 0 0 0 0 0 0 0 0 0
0 0 0 0 0 0 0 0 0 0 0 0 0 0 0 0 0 0 0 0 0 0 0 0 0 0 0 0 0 0 0 0 0 0 0 0 0 0 0 0 0 0 0
0 0 0 0 0 0 0 0 0 0 0 0 0 0 0 0 0 0 0 0 0 0 0 0 0 0 0 0 0 0 0 0 0 0 0 0 0 0 0 0 0 0 0
0 0 0 0 0 0 0 0 0 0 0 0 0 0 0 0 0 0 0 0 0 0 0 0 0 0 0 0 0 0 0 0 0 0 0 0 0 0 0 0 0 0 0
0 0 0 0 0 0 0 0 0 0 0 0 0 0 0 0 0 0 0 0 0 0 0 0 0 0 0 0 0 0 0 0 0 0 0 0 0 0 0 0 0 0 0
0 0 0 0 0 0 0 0 0 -0 0 0 0 0 0 0 0 0 0 0 0 0 0 0 0 0 0 0 0 0 0 0 0 0 0 0 0 0 0 0 0 0 0
Wind_Speed
4 3 4 4 4 4 5 6 6 5 5 4 4 4 3 2 2 2 3 4 4 4 4 3 3 3 3 3 3 3 3 1 1 2 2 2 2 1 1 1 1 2 2
3 4 4 4 5 6 6 6 7 6 6 5 4 3 3 2 2 1 2 3 4 4 4 4 3 3 3 3 3 3 2 1 1 2 1 2 3 3 2 1 1 1 2
8 6 5 6 5 6 7 7 7 6 6 5 4 3 3 2 2 2 2 2 3 4 4 5 4 4 4 3 3 3 4 2 1 1 2 2 2 2 2 2 1 2 2
6 6 6 6 6 7 5 5 6 6 6 6 6 7 5 4 4 3 2 2 2 3 4 4 4 4 3 4 3 3 3 4 2 1 1 1 2 1 2 2 2 2 2
7 7 7 7 6 5 5 5 5 5 5 5 7 6 4 3 2 2 3 2 1 2 3 4 4 4 3 3 4 3 3 3 3 2 1 1 1 1 1 3 3 3 2
6 5 4 4 3 3 4 4 5 4 4 5 5 6 6 5 5 3 3 2 1 1 2 3 3 3 3 3 3 3 4 3 3 2 2 2 2 2 2 3 3 4 3
5 5 4 4 4 4 4 4 5 4 4 5 5 5 6 7 7 6 5 4 2 2 3 3 3 3 3 3 3 3 3 3 3 3 2 2 2 2 2 2 3 4 3
5 5 5 5 5 5 4 5 5 4 4 4 4 4 5 4 4 4 4 4 3 3 3 3 3 3 3 3 3 2 2 2 3 3 2 2 2 2 2 2 2 3 4
4 4 4 4 4 4 4 5 5 4 4 4 4 4 4 4 4 3 3 2 2 2 3 3 3 2 3 3 3 2 2 2 2 2 2 2 1 2 2 2 2 2 4
2 2 2 2 3 3 3 3 4 4 3 4 4 3 3 3 4 4 3 3 3 3 3 3 3 2 2 3 3 2 2 2 2 2 2 2 1 1 1 2 2 2 4
2 2 1 1 2 2 3 3 3 3 3 3 3 3 2 2 3 3 3 3 3 3 3 3 3 3 2 2 3 2 2 2 1 1 2 2 1 1 1 1 2 2 3
2 2 2 3 3 3 3 3 3 3 2 2 3 3 2 2 3 3 2 3 3 3 3 3 3 3 2 2 3 2 2 2 2 2 1 2 1 2 2 2 2 3 3
3 3 3 3 3 3 3 3 2 3 2 3 3 3 2 2 2 2 2 3 3 3 3 3 3 3 2 2 2 2 2 2 2 2 2 2 2 2 2 2 3 3 3
3 4 4 3 3 3 3 3 2 2 2 3 3 3 2 2 2 2 2 3 3 3 3 3 2 2 2 2 2 2 2 1 1 1 1 2 2 3 3 3 3 3 3
4 3 3 3 3 3 3 3 2 2 2 3 3 2 2 2 2 2 2 3 3 3 3 3 2 2 2 2 2 2 2 2 1 0 0 1 3 4 4 3 3 3 3
3 3 3 3 2 2 2 2 2 2 2 3 2 2 2 2 2 2 3 3 3 3 3 2 2 2 1 2 2 1 2 2 1 1 1 1 2 3 5 6 6 6 5
2 2 2 1 1 1 1 1 1 2 2 2 2 2 2 2 2 3 3 3 2 2 2 2 2 1 1 2 2 1 1 2 1 1 1 2 3 4 3 5 6 6 8
1 2 2 2 2 2 2 2 2 2 2 2 2 2 2 2 2 2 2 2 1 2 2 1 1 1 1 2 2 1 1 1 1 2 2 2 3 3 4 3 4 4 5
1 1 1 2 2 2 2 3 3 3 2 2 2 1 1 2 2 2 2 1 1 1 1 1 1 1 1 2 2 1 1 1 1 1 2 2 3 5 6 4 4 5 5
3 2 3 3 3 2 2 3 2 2 1 0 1 1 1 2 2 2 1 1 1 1 1 0 1 1 2 2 2 1 1 1 1 1 2 4 5 6 7 4 4 5 5
4 3 3 3 2 2 2 3 2 1 1 1 1 1 1 1 1 1 1 1 1 1 1 0 1 1 2 2 2 2 1 2 1 2 2 3 6 7 8 7 4 6 6
4 4 3 3 2 2 2 3 1 1 1 2 2 1 1 1 1 1 1 1 2 1 0 0 1 1 1 1 2 3 2 2 2 2 2 3 6 8 8 6 6 9 7
3 3 3 3 3 3 2 2 1 1 2 2 2 1 1 1 1 1 1 1 1 1 1 1 1 2 1 1 3 3 3 3 2 2 4 6 7 7 5 6 8 7 3
3 2 3 3 2 3 2 1 1 1 2 2 1 1 1 1 1 1 0 1 1 1 1 1 2 2 2 1 2 2 2 2 2 2 3 5 5 5 5 5 4 3 3
2 2 2 2 2 2 2 2 1 2 2 1 1 1 1 1 1 1 0 1 1 2 2 2 2 2 2 4 5 3 2 2 2 2 2 1 2 2 2 3 3 3 3
2 3 3 3 3 3 3 3 2 1 1 1 1 0 0 1 1 1 2 2 2 3 3 3 3 3 4 4 5 5 5 4 4 2 1 2 2 3 3 4 4 3 3
Wind_Direction
226 198 184 169 158 158 160 167 164 167 160 158 160 160 172 176 171 177 168 165 162 161 158 156 152 151 152 156 147 128 104 73 70 75 21 359 6 21 10 7 22 14 6
209 199 186 175 174 175 174 173 175 175 176 172 167 164 159 158 163 161 160 170 169 168 165 163 164 162 153 145 147 137 124 90 65 110 95 356 347 354 352 359 8 350 357
206 202 194 194 185 184 184 182 181 178 174 162 141 124 105 93 123 157 177 187 175 172 168 169 164 162 162 166 167 156 147 152 100 91 137 142 243 310 326 338 343 337 342
208 204 196 194 195 195 186 178 175 172 168 163 160 158 162 173 188 182 180 172 169 170 169 167 166 165 167 169 175 166 161 152 157 116 75 145 160 170 308 315 326 330 327
203 201 199 197 193 180 173 169 164 166 166 165 167 165 163 169 161 144 144 151 164 172 171 167 164 169 174 176 172 166 162 162 164 163 160 131 99 164 192 281 303 318 303
202 198 189 173 169 159 156 156 158 166 167 165 167 168 166 161 154 162 169 172 173 179 174 164 166 173 176 180 181 173 165 170 164 163 165 168 174 194 200 254 287 297 298
191 183 172 168 167 164 164 160 161 168 171 168 172 175 175 173 174 177 179 176 179 191 195 175 175 177 182 178 171 166 172 173 173 179 191 194 208 198 201 237 278 290 291
190 187 184 177 173 172 167 162 167 174 173 171 175 176 176 175 178 179 177 183 189 193 184 179 178 178 172 165 161 164 177 171 179 188 192 201 220 213 207 206 241 294 294
197 191 183 176 172 171 173 171 168 171 172 170 164 163 169 169 168 170 171 172 177 170 164 167 165 166 160 159 156 166 178 171 184 189 195 212 226 222 226 211 205 222 283
183 167 165 170 165 162 155 142 152 158 158 159 164 160 164 166 167 162 166 170 167 153 150 150 152 154 156 159 155 157 170 162 183 189 184 214 232 233 237 224 230 224 240
165 146 128 120 115 112 117 119 120 122 126 139 143 143 151 157 158 161 170 169 156 152 156 158 154 156 161 165 156 166 171 164 179 194 192 221 230 243 258 248 248 249 241
90 91 95 88 85 92 99 109 114 118 129 132 128 137 139 138 145 156 165 155 151 152 154 151 150 154 160 167 160 171 177 176 186 207 205 238 248 254 263 258 257 260 254
69 70 75 78 82 84 86 91 101 111 113 118 122 123 126 133 144 149 145 142 141 138 137 143 150 150 153 160 163 166 175 181 190 207 216 243 239 263 273 270 266 267 272
73 75 72 67 72 79 85 86 79 90 107 116 121 124 132 140 146 142 134 137 139 141 143 143 145 146 150 160 161 156 169 164 179 210 228 248 248 252 259 268 265 269 279
55 65 71 65 64 65 60 69 68 66 93 112 116 126 122 113 112 116 119 121 126 133 136 128 125 135 154 168 159 164 169 167 175 219 275 279 281 283 285 282 275 276 278
53 51 56 64 60 59 55 56 57 51 82 105 110 107 109 110 112 117 118 119 120 121 121 132 145 157 183 181 183 177 171 177 176 201 284 289 292 299 309 306 298 290 282
61 60 52 60 53 51 66 70 57 59 75 90 98 101 109 112 114 113 113 119 128 128 130 144 151 166 197 211 198 204 183 169 185 215 245 282 288 309 296 297 302 301 295
69 60 57 53 42 42 53 61 61 65 75 80 80 89 108 110 106 109 117 124 127 139 146 154 164 173 217 234 223 211 135 158 210 234 242 256 274 280 287 288 295 295 297
88 78 64 60 56 48 57 74 64 64 70 72 68 75 113 119 119 125 135 126 129 125 150 167 166 184 241 246 242 241 147 173 258 266 265 268 267 276 295 299 294 299 300
57 56 48 55 59 36 62 84 75 71 67 65 102 102 113 126 146 155 147 124 134 153 153 145 171 199 236 246 251 247 172 200 265 286 274 278 287 291 300 297 291 296 299
52 58 62 58 46 43 80 94 83 59 353 22 70 76 89 120 150 140 139 135 125 113 121 133 292 244 233 249 261 261 236 213 247 273 281 281 296 302 304 305 295 290 301
46 54 64 51 34 44 80 83 63 17 46 69 77 75 69 74 88 113 108 124 134 129 158 132 327 308 267 259 263 265 276 285 268 268 276 284 298 304 309 309 305 309 315
42 48 65 57 34 31 69 84 24 29 54 72 73 72 63 60 92 126 129 116 138 158 223 220 257 291 293 281 296 287 279 289 294 274 286 300 306 311 312 310 311 315 312
31 39 55 55 26 19 40 67 45 47 69 76 67 68 75 46 42 48 107 162 196 205 230 242 252 277 291 279 274 271 266 278 295 301 302 311 314 314 311 313 314 309 290
26 36 45 41 13 14 20 28 48 73 69 61 76 73 61 73 42 22 318 273 237 223 232 236 238 242 261 266 282 293 285 279 283 320 326 325 318 311 309 308 306 304 303
38 43 37 34 13 11 6 5 21 69 100 83 62 76 72 52 42 19 359 348 326 315 308 290 279 272 272 289 294 298 303 308 312 332 308 300 298 295 297 300 303 300 296